TimePST,TemperatureF,Dew PointF,Humidity,Sea Level PressureIn,VisibilityMPH,Wind Direction,Wind SpeedMPH,Gust SpeedMPH,PrecipitationIn,Events,Conditions,WindDirDegrees,DateUTC
12:53 AM,48.0,19.0,32,30.25,10.0,Calm,Calm,-,N/A,,Clear,0,2012-12-20 08:53:00
1:53 AM,46.0,19.9,35,30.23,10.0,Variable,3.5,-,0.00,,Clear,0,2012-12-20 09:53:00
2:53 AM,46.0,19.9,35,30.22,10.0,Calm,Calm,-,N/A,,Clear,0,2012-12-20 10:53:00
3:53 AM,46.9,18.0,32,30.21,10.0,Variable,3.5,-,N/A,,Clear,0,2012-12-20 11:53:00
4:53 AM,46.0,18.0,33,30.20,10.0,Calm,Calm,-,N/A,,Clear,0,2012-12-20 12:53:00
5:53 AM,45.0,19.0,36,30.19,10.0,Calm,Calm,-,N/A,,Clear,0,2012-12-20 13:53:00
6:53 AM,46.0,19.0,34,30.21,10.0,Calm,Calm,-,N/A,,Clear,0,2012-12-20 14:53:00
7:53 AM,50.0,17.1,27,30.22,10.0,Variable,3.5,-,N/A,,Clear,0,2012-12-20 15:53:00
8:53 AM,54.0,17.1,23,30.23,10.0,Variable,4.6,-,N/A,,Clear,0,2012-12-20 16:53:00
9:53 AM,57.0,15.1,19,30.22,10.0,Variable,4.6,-,N/A,,Clear,0,2012-12-20 17:53:00
10:53 AM,61.0,12.9,15,30.20,10.0,Variable,4.6,-,N/A,,Clear,0,2012-12-20 18:53:00
11:53 AM,64.0,14.0,14,30.17,10.0,NE,3.5,-,N/A,,Clear,40,2012-12-20 19:53:00
12:53 PM,66.0,12.0,12,30.13,10.0,East,3.5,-,N/A,,Clear,80,2012-12-20 20:53:00
1:53 PM,68.0,12.9,12,30.10,10.0,Variable,3.5,-,N/A,,Clear,0,2012-12-20 21:53:00
2:53 PM,68.0,12.0,11,30.09,10.0,Variable,3.5,-,N/A,,Clear,0,2012-12-20 22:53:00
3:53 PM,64.0,28.0,26,30.09,10.0,West,10.4,-,N/A,,Clear,270,2012-12-20 23:53:00
4:53 PM,59.0,37.9,46,30.09,10.0,WNW,5.8,-,N/A,,Clear,290,2012-12-21 00:53:00
5:53 PM,57.9,39.9,51,30.09,10.0,West,3.5,-,N/A,,Clear,280,2012-12-21 01:53:00
6:53 PM,57.0,24.1,28,30.09,10.0,NW,3.5,-,N/A,,Clear,320,2012-12-21 02:53:00
7:53 PM,55.0,21.9,28,30.09,10.0,Calm,Calm,-,N/A,,Clear,0,2012-12-21 03:53:00
8:53 PM,54.0,19.9,26,30.11,10.0,Calm,Calm,-,N/A,,Clear,0,2012-12-21 04:53:00
9:53 PM,53.1,21.9,30,30.12,10.0,Calm,Calm,-,N/A,,Clear,0,2012-12-21 05:53:00
10:53 PM,52.0,19.9,28,30.12,10.0,Calm,Calm,-,N/A,,Clear,0,2012-12-21 06:53:00
11:53 PM,51.1,21.0,31,30.11,10.0,Calm,Calm,-,N/A,,Clear,0,2012-12-21 07:53:00